Location: Escondido Hill
(38.9119°N, 104.7815°W)
Time: 19:54:19
(UTC-06:00)

OTV 5 (USA 277) - Visible Passes

Search period start: 17 June 2019 00:00
Search period end: 27 June 2019 00:00
Orbit: 310 x 325 km, 54.5° (Epoch: 08 May)

Date Brightness Start Highest point End Pass type
(mag) Time Alt. Az. Time Alt. Az. Time Alt. Az.
19 Jun ? 00:24:36 12° N 00:24:36 12° N 00:25:14 10° N visible
19 Jun ? 23:06:04 14° NNE 23:06:04 14° NNE 23:06:36 10° NE visible
20 Jun ? 21:42:02 10° SSW 21:44:27 29° SE 21:46:54 10° ENE visible
20 Jun ? 23:16:48 10° W 23:18:50 18° NNW 23:20:52 10° NNE visible
21 Jun ? 04:04:29 10° N 04:05:31 11° NNE 04:06:32 10° NE visible
21 Jun ? 21:56:22 10° SW 21:59:06 80° NW 22:01:52 10° NE visible
22 Jun ? 04:18:14 10° NNW 04:20:30 23° NE 04:22:46 10° E visible
22 Jun ? 22:11:30 10° W 22:13:55 27° NW 22:16:20 10° NNE visible
23 Jun ? 04:32:37 10° NW 04:35:21 63° NE 04:38:02 10° SE visible
23 Jun ? 22:27:28 10° WNW 22:28:53 13° NNW 22:30:18 10° N visible
24 Jun ? 03:13:45 10° N 03:15:35 16° NNE 03:17:23 10° ENE visible
24 Jun ? 04:47:29 10° WNW 04:50:01 36° SW 04:52:33 10° SSE visible
24 Jun ? 21:06:24 10° WSW 21:09:03 43° NW 21:11:42 10° NE visible
25 Jun ? 03:27:55 10° NNW 03:30:30 36° NE 03:33:02 10° ESE visible
25 Jun ? 21:21:55 10° W 21:23:55 18° NNW 21:25:57 10° NNE visible
26 Jun ? 02:09:32 10° N 02:10:36 12° NNE 02:11:41 10° NE visible
26 Jun ? 03:42:31 10° NW 03:43:57 27° WNW 03:43:57 27° WNW visible
